Showing default

BD-17, 40549

Orbit data source: Space-Track

BD-17, 40549 is a payload satellite owned by CNSA (CN) that was launched on Mon, 30 Mar 2015 UTC via a CHANG ZHENG 3C/YZ-1 launch vehicle from the Xichang Space Center, China (XSC). Payload-class satellites include a variety of spacecraft equipped with specific instruments for various scientific and technological missions. These include communications satellites like Starlink; space stations such as the ISS; scientific satellites like the Hubble; Earth observation satellites from companies like Planet Labs, Umbra, and HawkEye 360; GPS; miniature CubeSats for education and research; and military/defense satellites.

Not visible in the next 10 days
Identifier
40549, 2015-019A
Orbit
Active
Country
Flag of CNCN / PRC
Related business
Manufacturer
SECM
Mission
Awaiting activation Defense Navigation
Bus & Motor
BD-3I, AKM?
Mass
~1,150 kg wet, ~850 kg dry
Launch date (UTC)
2015-03-30 (11 years ago)
Launch vehicle
CHANG ZHENG 3C/YZ-1
Launch site
Xichang Space Center, China (XSC)
Object type
Payload
Rocket body
Debris
Shape & HBR
Box + 2 Pan, 5.0 m
Radar Cross Section
9.494 m², Large (>1 m²)

Expand to show TLE details & history
Last TLE update: 3 days ago

TLE from 3 days ago
0 BD-17
1 40549U 15019A   25345.86462213 -.00000191  00000-0  00000-0 0  9991
2 40549  49.5542 297.7211 0036964 195.3449 352.9961  1.00292963 39194
Epoch: 2025-12-11T20:45Z
TLE epoch observation values (Epoch: 2025-12-11T20:45:03.352Z)
Latitude
-6.35893°
Longitude
91.05084°
Altitude
35,627.426 km
Speed
3.086 km/s
True Right ascension
08h 12m 31s
True Declination
-6° 21' 09"
Sunlit
Object was in daylight at epoch
Visualization orbit readout
Latitude
Unknown
Longitude
Unknown
Altitude
Unknown
Speed
Unknown
Apparent Right ascension
Unknown
Apparent Declination
Unknown
Sunlit
N/A
Visualization observer readout
Local Sidereal Time
05:56:08
Azimuth
Unknown
Elevation
Unknown
Doppler factor
Unknown
Orbital elements
Apogee altitude
35,936.658 km
Perigee altitude
35,624.986 km
Semi-major axis
42,158.959 km
Eccentricity
0.0037
Inclination
49.5542°
RAAN
297.7211°
Arg. of periapsis
195.3449°
True anomaly
352.94421°
Mean anomaly
352.9961°
Eccentric anomaly
352.97018°
Mean motion
0.25073 °/min
Orbital period
1,435.8 mins
BSTAR
0
Loading maneuver chart data...
Computing Atmospheric mass density...
Loading historical data...
Loading historical data...
Loading historical data...
Loading historical data...
Loading historical data...
Loading historical data...
Loading historical data...
Other satellites on launch #19 in the year 2015 (2015-03-30 UTC)

Documentation

Showing up to 5 results
|